カタログに戻る

SL-12 R/B(2)

運用中GEO
NORAD 20086·ROCKET BODY·🇷🇺 Russia

打ち上げ Jun 21, 1989 から Baikonur Cosmodrome

Loading…

TLE

最新Source: Space-Track

元期: Sep 14, 2026, 11:21 UTC

1 20086U 89048D   26257.47347362 -.00000197  00000-0  00000-0 0  9991
2 20086  13.0364 335.4861 0020183 152.3153 209.0933  0.97891919133094

AllMySatでSL-12 R/B(2)をリアルタイム追跡

Download on the App Store